Latest Weather Observations for Edinburgh

IDS60901

Issued at 2:51 pm CST Wednesday 25 May 2016 (issued every 10 minutes, with the page automatically refreshed every 10 minutes)

About weather observations | Map of Adelaide area stations | Latest observations for Adelaide area | Other Formats
Station Details ID: 023083 Name: EDINBURGH RAAF Lat: -34.71 Lon: 138.62 Height: 16.54 m
Data from the previous 72 hours. | See also: Recent months at Edinburgh
Date/Time
CST
Tmp

°C
App
Tmp
°C
Dew
Point
°C
Rel
Hum
%
Delta-T

°C
Wind Press
QNH
hPa
Press
MSL
hPa
Rain
since
9 am
mm
Dir
 
Spd
km/h
Gust
km/h
Spd
kts
Gust
kts
25/02:30pm 14.7 13.0 12.4 86 1.3 N 13 17 7 9 1007.6 1007.6 3.6
25/02:00pm 14.6 11.5 12.1 85 1.4 N 20 30 11 16 1007.5 1007.5 3.4
25/01:30pm 14.2 9.7 11.5 84 1.4 N 26 37 14 20 1008.1 1008.1 3.4
25/01:18pm 14.1 10.0 11.4 84 1.4 N 24 32 13 17 1008.3 1008.3 3.4
25/01:00pm 14.1 9.7 11.6 85 1.3 N 26 33 14 18 1008.8 1008.7 3.4
25/12:30pm 13.6 9.1 11.3 86 1.2 N 26 33 14 18 1009.3 1009.2 3.4
25/12:20pm 13.4 8.8 11.1 86 1.2 N 26 35 14 19 1009.3 1009.2 3.4
25/12:00pm 13.1 8.9 11.2 88 1.0 N 24 33 13 18 1009.9 1009.8 3.4
25/11:30am 12.4 7.7 10.6 89 0.9 N 26 33 14 18 1010.8 1010.7 3.4
25/11:00am 11.9 6.6 9.8 87 1.1 N 28 39 15 21 1011.5 1011.4 2.8
25/10:30am 12.0 6.3 9.7 86 1.2 N 30 41 16 22 1012.0 1011.9 2.2
25/10:00am 11.7 6.7 9.6 87 1.1 N 26 33 14 18 1012.5 1012.4 1.6
25/09:30am 11.7 6.5 8.9 83 1.4 N 26 35 14 19 1012.8 1012.7 0.8
25/09:00am 11.9 7.4 8.4 79 1.7 N 22 30 12 16 1013.1 1013.0 2.0
25/08:30am 12.3 8.6 8.0 75 2.1 N 17 24 9 13 1013.1 1013.0 1.6
25/08:00am 12.2 8.1 7.7 74 2.2 N 19 28 10 15 1013.0 1012.9 1.4
25/07:30am 12.3 8.5 7.6 73 2.3 NNE 17 24 9 13 1013.0 1012.9 1.2
25/07:00am 11.9 7.7 7.6 75 2.1 NNE 19 22 10 12 1013.2 1013.1 1.0
25/06:30am 11.6 7.9 7.9 78 1.8 NE 17 20 9 11 1012.9 1012.8 1.0
25/06:00am 11.4 8.4 7.9 79 1.7 NE 13 15 7 8 1013.0 1012.9 1.0
25/05:30am 11.5 8.1 7.8 78 1.8 NNE 15 20 8 11 1013.6 1013.5 1.0
25/05:00am 11.7 8.6 7.4 75 2.1 NE 13 15 7 8 1014.0 1013.9 0.4
25/04:30am 12.5 8.5 6.8 68 2.7 NE 17 20 9 11 1014.2 1014.1 0.2
25/04:00am 12.7 9.0 6.1 64 3.1 N 15 22 8 12 1014.2 1014.1 0.2
25/03:30am 14.4 9.8 3.5 48 4.9 N 17 28 9 15 1014.0 1013.9 0.2
25/03:00am 14.6 12.8 3.4 47 5.1 E 2 7 1 4 1014.2 1014.1 0.2
25/02:30am 14.7 11.7 4.1 49 4.9 ENE 9 15 5 8 1013.8 1013.7 0.2
25/02:00am 14.4 9.2 3.5 48 4.9 NE 20 26 11 14 1013.6 1013.5 0.0
25/01:30am 15.5 9.1 0.9 37 6.3 NE 24 30 13 16 1013.2 1013.1 0.0
25/01:00am 15.1 9.1 0.9 38 6.1 NE 22 28 12 15 1013.4 1013.3 0.0
25/12:30am 14.8 9.5 1.7 41 5.7 NE 19 24 10 13 1014.2 1014.1 0.0
25/12:00am 14.9 9.0 1.8 41 5.7 NE 22 28 12 15 1014.4 1014.3 0.0
 
Date/Time
CST
Tmp

°C
App
Tmp
°C
Dew
Point
°C
Rel
Hum
%
Delta-T

°C
Wind Press
QNH
hPa
Press
MSL
hPa
Rain
since
9 am
mm
Dir
 
Spd
km/h
Gust
km/h
Spd
kts
Gust
kts
24/11:30pm 14.5 8.2 1.8 42 5.5 NE 24 30 13 16 1014.7 1014.7 0.0
24/11:00pm 14.3 8.3 1.2 41 5.6 NE 22 28 12 15 1015.0 1015.0 0.0
24/10:30pm 14.0 8.0 1.0 41 5.6 NE 22 28 12 15 1015.4 1015.4 0.0
24/10:00pm 13.9 8.1 -0.2 38 5.9 NE 20 24 11 13 1015.9 1015.9 0.0
24/09:30pm 13.8 8.3 0.5 40 5.6 NE 19 22 10 12 1016.2 1016.2 0.0
24/09:00pm 13.1 7.8 1.8 46 4.9 NE 19 22 10 12 1016.5 1016.5 0.0
24/08:30pm 12.7 8.0 3.4 53 4.1 NE 17 20 9 11 1016.8 1016.8 0.0
24/08:00pm 12.0 8.4 5.0 62 3.2 NE 13 17 7 9 1017.1 1017.1 0.0
24/07:30pm 12.4 9.2 5.1 61 3.4 NE 11 15 6 8 1017.0 1017.0 0.0
24/07:00pm 13.1 10.3 5.0 58 3.8 NNE 9 11 5 6 1017.0 1017.0 0.0
24/06:30pm 13.6 10.8 5.3 57 3.9 NNE 9 13 5 7 1016.8 1016.8 0.0
24/06:00pm 15.1 11.8 4.8 50 4.8 NNE 11 13 6 7 1016.8 1016.8 0.0
24/05:30pm 16.0 12.3 4.7 47 5.3 N 13 15 7 8 1016.9 1016.9 0.0
24/05:00pm 18.0 14.7 4.6 41 6.4 N 11 13 6 7 1016.7 1016.7 0.0
24/04:30pm 20.1 15.9 3.8 34 7.8 N 15 20 8 11 1016.9 1016.9 0.0
24/04:00pm 20.7 16.0 3.4 32 8.2 N 17 22 9 12 1017.3 1017.3 0.0
24/03:30pm 20.9 15.7 2.7 30 8.5 N 19 24 10 13 1017.5 1017.5 0.0
24/03:00pm 21.2 16.1 4.3 33 8.2 N 20 30 11 16 1017.7 1017.7 0.0
24/02:30pm 21.0 16.2 5.8 37 7.6 N 20 30 11 16 1018.0 1018.0 0.0
24/02:00pm 20.8 16.4 6.7 40 7.1 NNE 19 26 10 14 1018.3 1018.3 0.0
24/01:30pm 20.4 15.9 6.0 39 7.2 N 19 24 10 13 1018.8 1018.8 0.0
24/01:00pm 20.3 16.5 5.9 39 7.2 N 15 26 8 14 1019.6 1019.6 0.0
24/12:30pm 19.6 16.2 9.2 51 5.5 NNE 17 24 9 13 1020.1 1020.1 0.0
24/12:00pm 19.0 16.2 10.0 56 4.8 NNE 15 22 8 12 1020.9 1020.9 0.0
24/11:30am 17.9 15.2 10.3 61 4.0 NNE 15 20 8 11 1021.8 1021.8 0.0
24/11:00am 16.9 13.7 9.8 63 3.7 NNE 17 20 9 11 1022.7 1022.7 0.0
24/10:30am 15.7 12.9 10.0 69 3.0 NNE 15 19 8 10 1023.4 1023.4 0.0
24/10:00am 14.5 12.3 10.9 79 1.9 NE 13 15 7 8 1023.6 1023.6 0.0
24/09:30am 13.4 12.5 11.5 88 1.0 NE 7 9 4 5 1023.7 1023.7 0.0
24/09:00am 11.8 10.1 10.0 89 0.9 ENE 9 11 5 6 1023.8 1023.8 0.0
24/08:30am 10.5 9.0 9.3 92 0.6 ENE 7 7 4 4 1023.8 1023.8 0.0
24/08:00am 9.7 8.0 8.5 92 0.6 ENE 7 7 4 4 1023.8 1023.8 0.0
24/07:30am 9.1 7.2 7.7 91 0.7 NE 7 9 4 5 1023.4 1023.4 0.0
24/07:00am 8.4 6.0 7.0 91 0.7 NE 9 11 5 6 1022.9 1022.9 0.0
24/06:30am 9.3 7.1 7.7 90 0.8 NE 9 11 5 6 1022.8 1022.8 0.0
24/06:00am 10.0 7.9 8.4 90 0.8 ENE 9 9 5 5 1022.5 1022.5 0.0
24/05:30am 10.3 8.3 8.7 90 0.8 NE 9 13 5 7 1022.4 1022.4 0.0
24/05:00am 10.4 8.4 8.8 90 0.8 ENE 9 15 5 8 1022.6 1022.6 0.0
24/04:30am 9.7 7.7 8.5 92 0.6 NE 9 11 5 6 1022.7 1022.7 0.0
24/04:00am 9.6 7.5 8.4 92 0.6 ENE 9 13 5 7 1022.5 1022.5 0.0
24/03:30am 9.7 7.7 8.6 93 0.5 NE 9 11 5 6 1022.7 1022.7 0.0
24/03:29am 9.7 7.7 8.6 93 0.5 NE 9 11 5 6 1022.7 1022.7 0.0
24/03:00am 9.4 6.9 8.2 92 0.6 NNE 11 13 6 7 1022.8 1022.8 0.0
24/02:48am 9.1 6.5 7.9 92 0.6 N 11 13 6 7 1022.9 1022.9 0.0
24/02:30am 8.7 7.7 7.3 91 0.7 NE 2 7 1 4 1023.0 1023.0 0.0
24/02:00am 9.1 8.5 7.4 89 0.8 CALM 0 0 0 0 1022.9 1022.9 0.0
24/01:30am 11.2 10.0 9.5 89 0.9 E 6 9 3 5 1023.3 1023.3 0.0
24/01:00am 10.9 9.1 9.5 91 0.7 ENE 9 11 5 6 1023.4 1023.4 0.0
24/12:30am 10.5 8.5 8.8 89 0.8 ENE 9 11 5 6 1023.9 1023.9 0.0
24/12:00am 10.1 8.4 8.5 90 0.8 NNE 7 9 4 5 1024.0 1024.0 0.0
 
Date/Time
CST
Tmp

°C
App
Tmp
°C
Dew
Point
°C
Rel
Hum
%
Delta-T

°C
Wind Press
QNH
hPa
Press
MSL
hPa
Rain
since
9 am
mm
Dir
 
Spd
km/h
Gust
km/h
Spd
kts
Gust
kts
23/11:30pm 10.6 8.7 8.9 89 0.8 NNE 9 13 5 7 1023.9 1023.9 0.0
23/11:00pm 11.1 9.2 9.2 88 0.9 NE 9 13 5 7 1023.9 1023.9 0.0
23/10:30pm 11.8 10.1 9.9 88 1.0 ENE 9 11 5 6 1024.1 1024.1 0.0
23/10:00pm 12.0 10.0 10.1 88 1.0 NNE 11 13 6 7 1024.5 1024.5 0.0
23/09:30pm 12.5 11.7 9.7 83 1.4 NW 4 7 2 4 1024.6 1024.6 0.0
23/09:00pm 13.8 12.8 11.1 84 1.4 WSW 7 9 4 5 1024.6 1024.6 0.0
23/08:30pm 13.4 11.6 10.8 84 1.4 W 11 11 6 6 1024.5 1024.5 0.0
23/08:00pm 14.3 12.6 11.3 82 1.6 WNW 11 13 6 7 1024.5 1024.5 0.0
23/07:30pm 14.1 12.8 11.1 82 1.6 NW 9 11 5 6 1024.2 1024.2 0.0
23/07:00pm 13.6 12.2 10.8 83 1.5 NW 9 11 5 6 1024.1 1024.1 0.0
23/06:30pm 13.3 11.7 10.1 81 1.6 NNW 9 11 5 6 1023.7 1023.7 0.0
23/06:00pm 13.8 11.8 10.0 78 2.0 NW 11 13 6 7 1023.4 1023.4 0.0
23/05:30pm 14.4 12.4 10.2 76 2.2 NW 11 11 6 6 1023.2 1023.2 0.0
23/05:00pm 16.3 13.6 10.4 68 3.1 WNW 15 17 8 9 1023.1 1023.1 0.0
23/04:30pm 17.4 14.2 10.1 62 3.9 W 17 22 9 12 1022.8 1022.8 0.0
23/04:00pm 17.8 14.2 9.9 60 4.2 W 19 24 10 13 1022.7 1022.7 0.0
23/03:30pm 18.2 15.0 10.1 59 4.3 W 17 22 9 12 1022.6 1022.6 0.0
23/03:00pm 18.5 15.3 10.1 58 4.5 W 17 22 9 12 1022.6 1022.6 0.0
23/02:30pm 18.7 15.2 10.8 60 4.3 WNW 20 26 11 14 1022.7 1022.7 0.0
23/02:00pm 18.2 14.5 10.1 59 4.3 W 20 24 11 13 1022.8 1022.8 0.0
23/01:30pm 18.6 14.4 11.2 62 4.0 W 24 30 13 16 1022.8 1022.8 0.0
23/01:00pm 17.4 13.0 10.3 63 3.8 W 24 32 13 17 1022.8 1022.8 0.0
23/12:30pm 17.5 13.6 10.9 65 3.5 W 22 28 12 15 1022.9 1022.9 0.0
23/12:00pm 17.4 13.6 11.0 66 3.4 W 22 32 12 17 1023.0 1023.0 0.0
23/11:30am 17.2 12.7 9.9 62 3.8 W 24 32 13 17 1023.5 1023.5 0.0
23/11:00am 17.1 13.2 10.7 66 3.4 W 22 30 12 16 1023.8 1023.8 0.0
23/10:30am 16.6 12.5 10.0 65 3.5 W 22 28 12 15 1023.9 1023.9 0.0
23/10:00am 16.2 12.5 10.3 68 3.1 WNW 20 28 11 15 1023.9 1023.9 0.0
23/09:30am 14.2 11.7 9.8 75 2.3 NNE 13 17 7 9 1023.6 1023.6 0.0
23/09:00am 12.8 9.7 8.7 76 2.0 NE 15 17 8 9 1023.6 1023.6 2.6
23/08:30am 13.0 11.5 9.3 78 1.9 NNE 7 11 4 6 1023.3 1023.3 2.6
23/08:00am 13.0 11.5 9.1 77 2.0 WNW 7 9 4 5 1023.2 1023.2 2.6
23/07:30am 12.4 8.4 8.3 76 2.0 W 19 22 10 12 1022.8 1022.8 2.6
23/07:00am 13.0 8.3 7.9 71 2.5 W 22 28 12 15 1022.3 1022.3 2.6
23/06:30am 12.5 8.4 7.8 73 2.3 WSW 19 24 10 13 1021.7 1021.7 2.6
23/06:00am 12.8 7.4 8.1 73 2.3 W 26 33 14 18 1021.4 1021.4 2.6
23/05:30am 13.1 7.5 7.3 68 2.8 WSW 26 33 14 18 1021.3 1021.3 2.6
23/05:00am 12.9 8.3 8.2 73 2.3 W 22 32 12 17 1020.9 1020.9 2.6
23/04:30am 12.6 8.0 8.3 75 2.1 W 22 26 12 14 1020.5 1020.5 2.6
23/04:00am 12.8 7.1 8.5 75 2.1 W 28 35 15 19 1020.3 1020.3 2.6
23/03:30am 13.0 8.1 8.3 73 2.3 W 24 33 13 18 1020.2 1020.2 2.6
23/03:00am 13.0 8.1 8.3 73 2.3 WSW 24 32 13 17 1020.1 1020.1 2.6
23/02:30am 13.5 7.1 8.4 71 2.5 WSW 32 41 17 22 1019.9 1019.9 2.6
23/02:00am 13.6 7.2 8.4 71 2.6 W 32 43 17 23 1019.3 1019.3 2.6
23/01:30am 13.3 6.8 9.0 75 2.2 W 33 44 18 24 1019.1 1019.1 2.6
23/01:00am 13.0 7.5 9.3 78 1.9 W 28 37 15 20 1019.0 1019.0 2.6
23/12:30am 12.5 6.9 8.8 78 1.8 W 28 37 15 20 1018.9 1018.9 2.6
23/12:00am 12.2 3.8 8.9 80 1.6 W 43 63 23 34 1018.5 1018.5 2.6
 
Date/Time
CST
Tmp

°C
App
Tmp
°C
Dew
Point
°C
Rel
Hum
%
Delta-T

°C
Wind Press
QNH
hPa
Press
MSL
hPa
Rain
since
9 am
mm
Dir
 
Spd
km/h
Gust
km/h
Spd
kts
Gust
kts
22/11:55pm 13.6 7.3 9.8 78 2.0 W 33 57 18 31 1018.4 1018.4 2.2
22/11:30pm 14.3 7.6 9.7 74 2.4 WNW 35 46 19 25 1018.0 1018.0 2.2
22/11:00pm 14.3 7.5 9.1 71 2.6 WNW 35 48 19 26 1017.4 1017.4 2.2
22/10:30pm 14.0 7.8 9.4 74 2.3 WNW 32 43 17 23 1017.1 1017.1 2.2
22/10:00pm 14.2 7.4 9.4 73 2.5 WNW 35 46 19 25 1016.6 1016.6 2.2
22/09:30pm 14.2 8.4 9.6 74 2.4 WNW 30 43 16 23 1016.2 1016.2 2.2
22/09:00pm 14.4 9.4 9.6 73 2.5 WNW 26 37 14 20 1015.7 1015.7 2.2
22/08:30pm 14.9 10.2 10.5 75 2.3 WNW 26 32 14 17 1015.6 1015.6 2.2
22/08:00pm 15.0 9.4 10.0 72 2.6 WNW 30 39 16 21 1015.2 1015.2 2.2
22/07:30pm 15.2 9.1 10.4 73 2.5 W 33 43 18 23 1014.7 1014.7 2.2
22/07:00pm 15.4 10.3 12.0 80 1.8 W 30 39 16 21 1014.1 1014.0 2.2
22/06:30pm 15.2 12.4 12.5 84 1.5 WNW 19 30 10 16 1013.9 1013.8 2.0
22/06:17pm 15.2 12.6 13.2 88 1.1 WNW 19 24 10 13 1013.6 1013.5 2.0
22/06:00pm 15.2 10.8 12.9 86 1.3 WNW 28 33 15 18 1013.5 1013.4 1.6
22/05:31pm 16.2 11.6 12.4 78 2.1 WNW 28 50 15 27 1012.4 1012.3 0.8
22/05:30pm 16.2 12.1 12.6 79 2.0 WNW 26 46 14 25 1012.4 1012.3 0.8
22/05:00pm 16.4 9.5 11.6 73 2.6 W 39 59 21 32 1011.7 1011.6 0.8
22/04:54pm 17.4 12.7 12.1 71 2.9 WNW 28 50 15 27 1011.6 1011.5 0.8
22/04:30pm 17.8 15.2 12.0 69 3.2 NNW 17 20 9 11 1010.6 1010.5 0.8
22/04:00pm 17.7 15.4 11.7 68 3.3 N 15 19 8 10 1010.5 1010.4 0.8
22/03:30pm 17.8 14.6 11.8 68 3.3 NNW 20 28 11 15 1010.4 1010.3 0.8
22/03:00pm 17.7 14.4 11.5 67 3.4 NNW 20 28 11 15 1010.2 1010.1 0.8

Latest Capital City Observations: Canberra | Sydney | Melbourne | Brisbane | Adelaide | Perth | Hobart | Darwin

Other Formats:

Comma delimited format used in spreadsheet applications
http://www.bom.gov.au/fwo/IDS60901/IDS60901.95676.axf

JavaScript Object Notation format (JSON) in row-major order
http://www.bom.gov.au/fwo/IDS60901/IDS60901.95676.json